Hourly Weather Roundup
Issued by NWS Central Illinois

Home | Current Version | Previous Version | Text Only | Print | Product List | Glossary On
Versions: 1 2 3 4 5 6 7 8 9 10 11 12 13 14 15 16 17 18 19 20 21 22 23 24 25 26 27 28 29 30 31 32 33 34 35 36 37 38 39 40 41 42 43 44 45 46 47 48 49 50
000
NZUS43 KILX 292310
HWRILX

AREA WEATHER ROUNDUP
NATIONAL WEATHER SERVICE, LINCOLN IL
600 PM CDT THU SEP 29 2016


CITY           SKY/WX    TMP DP  RH WIND       PRES   REMARKS
BLOOMINGTON    CLOUDY    62  59  90 N17       30.17R
CHAMPAIGN      MOCLDY    68  53  58 N6        30.12R
DANVILLE       CLOUDY    66  52  59 E5        30.09R
DECATUR        CLEAR     63  59  87 N14       30.14R
EFFINGHAM      MOCLDY    67  56  66 N3        30.13R
FLORA          CLOUDY    67  57  69 N6        30.11S
GALESBURG      CLOUDY    68  55  62 NE14      30.21R
JACKSONVILLE   CLOUDY    67  55  66 N7        30.17S
LACON          CLOUDY    63  56  80 NE5       30.20S
LAWRENCEVILLE  PTCLDY    64  53  67 N5        30.10R
LITCHFIELD     RAIN      60  57  89 NW9       30.15S
$$


CITY           SKY/WX    TMP DP  RH WIND       PRES   REMARKS
LINCOLN        MOCLDY    63  61  94 N7G17     30.17R
MACOMB         CLOUDY    69  54  57 N10G18    30.22R
MATTOON        MOCLDY    67  51  56 E6        30.11R
MT CARMEL AP   CLEAR     66  51  60 N5        30.10R
OLNEY-NOBLE AP PTCLDY    64  52  63 NW5       30.11S
PARIS          MOCLDY    67  52  57 CALM      30.11S
PEORIA         LGT RAIN  62  60  93 NE14G22   30.20R FOG
PONTIAC        CLOUDY    64  63  94 N13       30.18R
RANTOUL        LGT RAIN  68  59  71 N10       30.12R
ROBINSON       MOCLDY    64  53  68 N6        30.11S
SPRINGFIELD    LGT RAIN  63  61  93 N10       30.17R FOG
TAYLORVILLE    LGT RAIN  60  59  94 N13G18    30.15R
$$

...REGIONAL REPORTS...


CITY           SKY/WX    TMP DP  RH WIND       PRES   REMARKS
CHICAGO O`HARE CLOUDY    63  57  81 NE15      30.21R
KANKAKEE       LGT RAIN  62  59  88 N9G17     30.17R
MOLINE         CLOUDY    72  52  49 NE14G21   30.22R
MOUNT STERLING CLOUDY    70  53  55 N10       30.18R
MOUNT VERNON   CLEAR     64  54  68 CALM      30.13S
PITTSFIELD     CLOUDY    69  54  59 N5        30.19R
QUINCY         MOCLDY    73  50  44 N9        30.19R
ROCKFORD       MOCLDY    66  53  63 NE13      30.27R
$$


CITY           SKY/WX    TMP DP  RH WIND       PRES   REMARKS
BURLINGTON     PTCLDY    72  52  49 N18       30.21R
CEDAR RAPIDS   CLEAR     71  49  45 NE15      30.26R
DES MOINES     SUNNY     73  45  36 N10       30.29F
KIRKSVILLE     CLEAR     71  49  45 N9        30.24S
OTTUMWA        CLEAR     74  41  30 NE14      30.23F
ST LOUIS       CLOUDY    65  56  72 N8        30.18R
$$


CITY           SKY/WX    TMP DP  RH WIND       PRES   REMARKS
TERRE HAUTE    PTCLDY    65  53  65 CALM      30.09F
EVANSVILLE     CLOUDY    66  52  60 N3        30.10R
INDIANAPOLIS   MOCLDY    66  50  56 N14       30.08S
LAFAYETTE      CLEAR     66  51  58 NE7       30.11R
MADISON        PTCLDY    67  52  58 NE16G23   30.28S
MILWAUKEE      MOCLDY    63  58  83 N16G28    30.27S
$$






USA.gov is the U.S. government's official web portal to all federal, state and local government web resources and services.